Howell, MI

8:46 PM EDT on October 22, 2017 (GMT -0400)
Livingston County

Weather History for KOZW - October, 2012

Change the Weather History Date:

Saturday, October 27, 2012

  Actual Average Record
Temperature  
Mean Temperature 42 °F -  
Max Temperature 51 °F 55 °F 75 °F (2000)
Min Temperature 34 °F 38 °F 28 °F (1997)
Degree Days  
Heating Degree Days 22    
Moisture  
Dew Point 30 °F    
Average Humidity 62    
Maximum Humidity 82    
Minimum Humidity 39    
Precipitation  
Precipitation 0.00 in - - ()
Sea Level Pressure  
Sea Level Pressure 30.20 in    
Wind  
Wind Speed 4 mph (North)    
Max Wind Speed 9 mph    
Max Gust Speed 17 mph    
Visibility 10 miles    
Events      
Averages and records for this station are not official NWS values.
T = Trace of Precipitation, MM = Missing Value Source: NWS Daily Summary

Daily Weather History Graph

Daily Weather History Graph

Search for Another Location

Airport or City:

Trip Planner

Search our weather history database for the weather conditions in past years. The results will help you decide how hot, cold, wet, or windy it might be!

Date:

Astronomy

Oct. 27, 2012 Rise Set
Actual Time 8:04 AM EDT 6:34 PM EDT
Civil Twilight 7:35 AM EDT 7:03 PM EDT
Nautical Twilight 7:01 AM EDT 7:36 PM EDT
Astronomical Twilight 6:29 AM EDT 8:09 PM EDT
Moon 5:21 PM EDT (10/27) 5:56 AM EDT (10/27)
Length of Visible Light 11h 28m
Length of Day
10h 30m
Waxing Gibbous, 96% of the Moon is Illuminated
Oct 27
Waxing Gibbous
Oct 29
Full
Nov 6
Last Quarter
Nov 13
New
Nov 20
First Quarter

Hourly Weather History & Observations

Time (EDT) Temp. Windchill Dew Point Humidity Pressure Visibility Wind Dir Wind Speed Gust Speed Precip Events Conditions
12:35 AM 41.0 °F - 31.1 °F 68% 30.23 in 10.0 mi Calm Calm - N/A   Scattered Clouds
12:54 AM 41.5 °F 39.6 °F 31.1 °F 66% 30.23 in 10.0 mi NNW 3.5 mph - N/A   Overcast
1:15 AM 42.1 °F 39.2 °F 30.7 °F 64% 30.22 in 10.0 mi NNW 4.6 mph - N/A   Overcast
1:35 AM 42.1 °F 39.2 °F 30.2 °F 63% 30.22 in 10.0 mi NNW 4.6 mph - N/A   Scattered Clouds
1:54 AM 41.9 °F 38.2 °F 30.0 °F 63% 30.22 in 10.0 mi North 5.8 mph - N/A   Scattered Clouds
2:15 AM 41.4 °F 37.6 °F 30.2 °F 65% 30.21 in 10.0 mi North 5.8 mph - N/A   Scattered Clouds
2:54 AM 40.3 °F 37.1 °F 29.8 °F 66% 30.21 in 10.0 mi North 4.6 mph - N/A   Scattered Clouds
3:15 AM 39.6 °F 36.3 °F 29.8 °F 68% 30.21 in 10.0 mi North 4.6 mph - N/A   Clear
3:35 AM 39.2 °F 35.0 °F 29.7 °F 69% 30.20 in 10.0 mi North 5.8 mph - N/A   Mostly Cloudy
3:54 AM 39.2 °F 35.0 °F 30.2 °F 70% 30.20 in 10.0 mi North 5.8 mph - N/A   Overcast
4:15 AM 39.2 °F 35.0 °F 30.0 °F 70% 30.21 in 10.0 mi North 5.8 mph - N/A   Overcast
4:35 AM 38.7 °F 33.6 °F 29.8 °F 71% 30.20 in 10.0 mi North 6.9 mph - N/A   Scattered Clouds
4:54 AM 38.1 °F 34.6 °F 29.8 °F 72% 30.20 in 10.0 mi North 4.6 mph - N/A   Clear
5:15 AM 37.6 °F - 30.0 °F 74% 30.20 in 10.0 mi Calm Calm - N/A   Clear
5:34 AM 37.4 °F 33.8 °F 30.0 °F 75% 30.20 in 10.0 mi North 4.6 mph - N/A   Clear
5:54 AM 37.0 °F 34.5 °F 30.2 °F 76% 30.20 in 10.0 mi North 3.5 mph - N/A   Clear
6:15 AM 36.9 °F 32.2 °F 30.2 °F 77% 30.20 in 10.0 mi North 5.8 mph - N/A   Clear
6:34 AM 36.9 °F 32.2 °F 30.2 °F 77% 30.20 in 10.0 mi NNW 5.8 mph - N/A   Clear
6:55 AM 36.5 °F 32.7 °F 30.2 °F 78% 30.20 in 10.0 mi NNW 4.6 mph - N/A   Clear
7:15 AM 35.6 °F 30.7 °F 30.2 °F 81% 30.20 in 10.0 mi NNW 5.8 mph - N/A   Clear
7:55 AM 34.9 °F 29.9 °F 29.7 °F 81% 30.21 in 10.0 mi NNW 5.8 mph - N/A   Clear
8:15 AM 34.9 °F - 29.7 °F 81% 30.22 in 10.0 mi Calm Calm - N/A   Clear
8:34 AM 34.7 °F - 29.7 °F 82% 30.22 in 10.0 mi Calm Calm - N/A   Scattered Clouds
8:55 AM 36.5 °F 31.8 °F 30.6 °F 79% 30.22 in 10.0 mi NNW 5.8 mph - N/A   Overcast
9:15 AM 36.7 °F 32.9 °F 30.7 °F 79% 30.22 in 10.0 mi NNW 4.6 mph - N/A   Mostly Cloudy
9:34 AM 38.1 °F 34.6 °F 31.1 °F 76% 30.23 in 10.0 mi North 4.6 mph - N/A   Mostly Cloudy
10:15 AM 41.7 °F 38.8 °F 32.0 °F 68% 30.22 in 10.0 mi North 4.6 mph - N/A   Clear
10:34 AM 43.2 °F 40.5 °F 32.0 °F 65% 30.21 in 10.0 mi North 4.6 mph - N/A   Clear
11:14 AM 46.8 °F - 33.8 °F 61% 30.21 in 10.0 mi North 8.1 mph - N/A   Scattered Clouds
11:34 AM 47.1 °F - 34.2 °F 61% 30.21 in 10.0 mi NE 9.2 mph - N/A   Scattered Clouds
11:55 AM 48.4 °F - 33.6 °F 57% 30.21 in 10.0 mi NNE 8.1 mph - N/A   Mostly Cloudy
12:14 PM 48.7 °F - 34.7 °F 58% 30.21 in 10.0 mi North 8.1 mph - N/A   Mostly Cloudy
12:35 PM 46.9 °F - 34.7 °F 62% 30.21 in 10.0 mi North 6.9 mph - N/A   Mostly Cloudy
12:55 PM 49.6 °F - 34.5 °F 56% 30.20 in 10.0 mi North 8.1 mph - N/A   Scattered Clouds
1:14 PM 48.4 °F - 32.7 °F 55% 30.20 in 10.0 mi North 6.9 mph - N/A   Mostly Cloudy
1:35 PM 48.7 °F - 32.4 °F 53% 30.19 in 10.0 mi NNE 8.1 mph - N/A   Mostly Cloudy
1:55 PM 48.4 °F - 31.6 °F 52% 30.18 in 10.0 mi North 4.6 mph - N/A   Mostly Cloudy
2:14 PM 49.5 °F - 29.3 °F 46% 30.17 in 10.0 mi North 9.2 mph - N/A   Mostly Cloudy
2:35 PM 49.3 °F - 31.5 °F 50% 30.17 in 10.0 mi North 8.1 mph - N/A   Mostly Cloudy
2:55 PM 51.1 °F - 30.9 °F 46% 30.16 in 10.0 mi NNE 8.1 mph - N/A   Mostly Cloudy
3:14 PM 49.5 °F - 31.8 °F 51% 30.15 in 10.0 mi NNE 6.9 mph - N/A   Overcast
3:35 PM 50.7 °F - 31.1 °F 47% 30.14 in 10.0 mi North 8.1 mph - N/A   Mostly Cloudy
3:55 PM 50.5 °F - 30.6 °F 46% 30.14 in 10.0 mi North 8.1 mph 16.1 mph N/A   Scattered Clouds
4:14 PM 50.7 °F - 28.4 °F 42% 30.15 in 10.0 mi NNW 9.2 mph 17.3 mph N/A   Scattered Clouds
4:35 PM 51.1 °F - 27.3 °F 40% 30.15 in 10.0 mi North 8.1 mph 16.1 mph N/A   Scattered Clouds
4:54 PM 49.3 °F - 26.8 °F 42% 30.15 in 10.0 mi North 8.1 mph - N/A   Clear
5:14 PM 50.7 °F - 26.4 °F 39% 30.16 in 10.0 mi North 9.2 mph - N/A   Scattered Clouds
5:35 PM 48.7 °F - 28.0 °F 45% 30.16 in 10.0 mi North 9.2 mph - N/A   Scattered Clouds
5:54 PM 48.2 °F - 27.1 °F 44% 30.16 in 10.0 mi North 6.9 mph 17.3 mph N/A   Scattered Clouds
6:15 PM 46.9 °F - 26.6 °F 45% 30.17 in 10.0 mi North 8.1 mph - N/A   Clear
6:35 PM 45.9 °F 42.3 °F 26.8 °F 47% 30.18 in 10.0 mi North 6.9 mph - N/A   Clear
6:54 PM 44.8 °F 42.4 °F 26.8 °F 49% 30.18 in 10.0 mi NNE 4.6 mph - N/A   Clear
7:15 PM 44.1 °F 40.8 °F 27.5 °F 52% 30.19 in 10.0 mi NNE 5.8 mph - N/A   Clear
7:34 PM 43.3 °F 41.7 °F 27.5 °F 54% 30.19 in 10.0 mi NNE 3.5 mph - N/A   Clear
7:55 PM 42.8 °F - 27.5 °F 55% 30.19 in 10.0 mi Calm Calm - N/A   Clear
8:14 PM 42.3 °F - 27.9 °F 57% 30.20 in 10.0 mi Calm Calm - N/A   Clear
8:35 PM 42.1 °F - 27.9 °F 57% 30.20 in 10.0 mi Calm Calm - N/A   Clear
8:55 PM 41.5 °F - 28.0 °F 59% 30.20 in 10.0 mi Calm Calm - N/A   Clear
9:14 PM 40.8 °F - 28.4 °F 61% 30.21 in 10.0 mi Calm Calm - N/A   Clear
9:35 PM 39.9 °F - 28.4 °F 63% 30.21 in 10.0 mi Calm Calm - N/A   Clear
9:55 PM 39.6 °F - 28.8 °F 65% 30.22 in 10.0 mi Calm Calm - N/A   Clear
10:14 PM 38.5 °F - 28.9 °F 69% 30.21 in 10.0 mi Calm Calm - N/A   Clear
10:35 PM 38.5 °F - 29.1 °F 69% 30.21 in 10.0 mi Calm Calm - N/A   Clear
10:55 PM 38.3 °F - 29.5 °F 71% 30.21 in 10.0 mi Calm Calm - N/A   Clear
11:14 PM 38.7 °F - 29.5 °F 70% 30.21 in 10.0 mi Calm Calm - N/A   Clear
11:35 PM 38.5 °F - 29.7 °F 71% 30.21 in 10.0 mi Calm Calm - N/A   Clear
11:55 PM 38.7 °F - 29.8 °F 71% 30.22 in 10.0 mi Calm Calm - N/A   Scattered Clouds